[[{"header":{"parameterUnit":"m.s-1","parameterCategory":1,"la1":30.2991,"la2":30.254,"lo1":-89.0895,"lo2":-89.0444,"dy":0.0017,"dx":0.0017,"nx":28,"ny":28,"refTime":"2025-08-07T03:00:00:Z","depth":0,"parameterNumber":2,"parameterNumberName":"U-component_of_WINDS"},"data":[0,0,0,0,0,0,0,0,0,0,0,0,0,0,0,0,0,0,0,0,0,0,0,0,0,0,0,0,0,0,0,0,0,0,0,0,0,0,0,0,0,0,0,0,0,0,0,0,0,0,0,0,0,0,0,0,0,0,0.184,0.1839,0,0.1775,0.1775,0.1774,0.1743,0.1743,0.1743,0.1743,0.1675,0.1673,0.1671,0,0,0,0,0,0,0,0,0,0,0,0,0,0.1936,0.1934,0.184,0.1839,0.1838,0.1775,0.1774,0.1774,0.1743,0.1743,0.1743,0.1743,0.1675,0.1673,0.1671,0,0,0,0,0,0,0,0,0,0,0,0,0,0.1885,0.1933,0.184,0.1816,0.1813,0.1776,0.1774,0.1773,0.1743,0.1743,0.1743,0.1743,0.1676,0.1673,0.1671,0.1653,0,0,0.1662,0.1661,0,0,0,0,0,0,0,0,0.1888,0.1881,0.182,0.1817,0.1814,0.1767,0.1783,0.1733,0.1743,0.1769,0.1743,0.1743,0.1705,0.17,0.1688,0.1649,0.1646,0.1662,0.166,0.1659,0.1658,0,0,0,0,0,0,0,0.1891,0.1884,0.1814,0.1819,0.1815,0.1807,0.18,0.1773,0.1738,0.1767,0.1765,0.1757,0.1704,0.1691,0.1686,0.1645,0.1662,0.166,0.1658,0.1657,0.159,0.1589,0,0,0,0,0,0,0.1899,0.1887,0.1816,0.1812,0.1852,0.1805,0.1797,0.1782,0.1738,0.1731,0.1758,0.1756,0.1695,0.1689,0.1684,0.166,0.1659,0.1656,0.1655,0.159,0.159,0.1589,0,0,0,0,0,0,0.1901,0.1893,0.1819,0.1849,0.1839,0.1804,0.1787,0.1781,0.1768,0.1731,0.1724,0.1751,0.1695,0.1687,0.1661,0.1657,0.1655,0.1653,0.159,0.159,0.159,0.1612,0,0,0,0,0,0,0.1904,0.1894,0.1887,0.1849,0.1838,0.1798,0.1787,0.178,0.1763,0.1761,0.1723,0.1716,0.1695,0.1665,0.1658,0.1653,0.1651,0.159,0.159,0.159,0.1612,0.1613,0.1614,0,0,0,0,0,0.1908,0.1895,0.1887,0.1878,0.1828,0.1798,0.1791,0.1766,0.1763,0.1756,0.1732,0.1718,0.1659,0.1663,0.1654,0.1649,0.159,0.159,0.159,0.1611,0.1613,0.1614,0,0,0,0,0,0,0.1932,0.189,0.188,0.1855,0.183,0.1792,0.1782,0.1769,0.1744,0.1743,0.1713,0.1705,0.1681,0.1662,0.1667,0.1629,0.1623,0.1621,0.1642,0.1643,0.1644,0.1649,0.1648,0,0,0,0,0,0.1935,0.1915,0.1878,0.186,0.1848,0.1818,0.1803,0.1787,0.176,0.1749,0.1723,0.1697,0.1672,0.1657,0.1632,0.1609,0.16,0.1601,0.1602,0.1603,0.1602,0.1589,0.1589,0.1589,0.1589,0.1589,0,0,0.1941,0.1915,0.1903,0.1864,0.1843,0.1822,0.1809,0.1787,0.1771,0.1745,0.1719,0.1699,0.1668,0.1643,0.1631,0.1627,0.16,0.1603,0.1604,0.1602,0.1588,0.1588,0.1588,0.1588,0.1588,0.1588,0,0,0.1939,0.1918,0.19,0.188,0.1848,0.1828,0.1824,0.1789,0.1775,0.1748,0.1729,0.1709,0.1667,0.1646,0.163,0.1622,0.1608,0.1615,0.1621,0.1608,0.1608,0.1608,0.1605,0.1605,0.1614,0.1614,0.1614,0,0.1949,0.1917,0.1893,0.1872,0.1856,0.1833,0.1815,0.1796,0.1758,0.1747,0.1743,0.1691,0.1668,0.1639,0.1637,0.1625,0.1619,0.1619,0.161,0.161,0.1609,0.1606,0.1606,0.1615,0.1615,0.1615,0.1615,0,0.1932,0.191,0.19,0.1865,0.1847,0.1828,0.18,0.1785,0.1771,0.1751,0.1724,0.1696,0.1666,0.1658,0.1643,0.1626,0.1625,0.1616,0.1609,0.1611,0.1608,0.1606,0.1616,0.1616,0.1616,0.1615,0,0,0.1943,0.1896,0.1893,0.1877,0.1841,0.1823,0.1803,0.1775,0.1762,0.1737,0.172,0.1686,0.1678,0.1659,0.1642,0.1631,0.1627,0.1624,0.1623,0.1626,0.1608,0.1614,0.1613,0.1618,0.1618,0.1618,0.161,0,0.1937,0.1901,0.1879,0.1851,0.1831,0.1809,0.1792,0.1768,0.1749,0.1729,0.1708,0.1685,0.1676,0.1665,0.1653,0.163,0.1623,0.1631,0.1601,0.1601,0.161,0.1612,0.1618,0.1613,0.1609,0.1609,0.1608,0,0.1925,0.1901,0.1872,0.1839,0.183,0.1815,0.1787,0.1768,0.1741,0.1728,0.1708,0.1691,0.1669,0.1665,0.1634,0.164,0.1626,0.1614,0.1613,0.1609,0.1604,0.1608,0.161,0.1609,0.1606,0.1606,0.1607,0,0.1936,0.1897,0.1875,0.1862,0.1823,0.1813,0.1796,0.1769,0.1753,0.1729,0.1719,0.1692,0.1678,0.1657,0.1633,0.1632,0.1605,0.1599,0.1594,0.1595,0.1589,0.1589,0.1589,0.1581,0.1581,0.1581,0.1581,0,0.1932,0.1915,0.188,0.1866,0.1846,0.1821,0.1802,0.1784,0.176,0.1742,0.1722,0.1705,0.1675,0.1655,0.1636,0.1614,0.1607,0.1596,0.1591,0.1598,0.1599,0.1589,0.1588,0.1581,0.1581,0.1581,0.1581,0,0.1941,0.1917,0.1891,0.1857,0.1848,0.1835,0.1806,0.1792,0.1773,0.175,0.1743,0.1713,0.1689,0.1663,0.1629,0.1617,0.1595,0.1589,0.1605,0.1602,0.1599,0.1599,0.1591,0.1589,0.1583,0.1583,0.1583,0,0.1939,0.1926,0.1891,0.1878,0.1862,0.1841,0.1825,0.18,0.1785,0.1753,0.1743,0.1717,0.1695,0.1657,0.1631,0.1606,0.1598,0.1597,0.1594,0.1602,0.1598,0.1599,0.1598,0.1598,0.1598,0.1599,0.1599,0,0.1939,0.1928,0.1907,0.1882,0.1864,0.1842,0.182,0.1811,0.1781,0.1765,0.174,0.1723,0.1689,0.1664,0.1635,0.1618,0.1603,0.16,0.1598,0.1604,0.1614,0.1609,0.1608,0.16,0.16,0.16,0.16,0.16,0.1943,0.193,0.1904,0.1881,0.1862,0.1842,0.1827,0.1807,0.1785,0.1757,0.1743,0.1718,0.1692,0.1652,0.1635,0.1616,0.1611,0.1608,0.1607,0.1606,0.1608,0.1618,0.161,0.161,0.161,0.161,0.161,0,0.1942,0.1924,0.1903,0.1873,0.1855,0.1844,0.1819,0.1805,0.1784,0.176,0.174,0.1711,0.1687,0.166,0.1634,0.1624,0.1616,0.1618,0.1618,0.1614,0.1613,0.1618,0.1624,0.1624,0.1624,0.1624,0.1624,0.1624,0.1939,0.1917,0.1903,0.1872,0.1854,0.183,0.1817,0.1798,0.178,0.175,0.1729,0.1713,0.1688,0.1661,0.1638,0.1631,0.1622,0.1625,0.1616,0.1615,0.1614,0.1613,0.1618,0.1624,0.1624,0.1619,0.1619,0.1619]},{"header":{"parameterUnit":"m.s-1","parameterCategory":1,"la1":30.2991,"la2":30.254,"lo1":-89.0895,"lo2":-89.0444,"dy":0.0017,"dx":0.0017,"nx":28,"ny":28,"refTime":"2025-08-07T03:00:00:Z","depth":0,"parameterNumber":3,"parameterNumberName":"V-component_of_WINDS"},"data":[0,0,0,0,0,0,0,0,0,0,0,0,0,0,0,0,0,0,0,0,0,0,0,0,0,0,0,0,0,0,0,0,0,0,0,0,0,0,0,0,0,0,0,0,0,0,0,0,0,0,0,0,0,0,0,0,0,0,-2.9333,-2.9334,0,-2.9422,-2.9423,-2.9424,-2.9378,-2.9375,-2.9373,-2.9371,-2.9462,-2.9467,-2.9471,0,0,0,0,0,0,0,0,0,0,0,0,0,-2.9122,-2.9126,-2.9333,-2.9334,-2.9335,-2.9422,-2.9423,-2.9424,-2.9378,-2.9375,-2.9372,-2.937,-2.9461,-2.9466,-2.9472,0,0,0,0,0,0,0,0,0,0,0,0,0,-2.9213,-2.9128,-2.9333,-2.9323,-2.9323,-2.9422,-2.9423,-2.9425,-2.9379,-2.9375,-2.9372,-2.9368,-2.9459,-2.9466,-2.9473,-2.9587,0,0,-2.9494,-2.9497,0,0,0,0,0,0,0,0,-2.9208,-2.9221,-2.9323,-2.9323,-2.9324,-2.9385,-2.9382,-2.9479,-2.938,-2.9358,-2.9371,-2.9367,-2.9439,-2.9448,-2.9472,-2.9591,-2.9595,-2.9494,-2.9499,-2.9502,-2.9504,0,0,0,0,0,0,0,-2.9202,-2.9217,-2.9368,-2.9324,-2.9325,-2.9313,-2.9322,-2.94,-2.9417,-2.9359,-2.9356,-2.9367,-2.9439,-2.9466,-2.9474,-2.9596,-2.9494,-2.95,-2.9505,-2.9507,-2.9812,-2.9816,0,0,0,0,0,0,-2.9196,-2.9212,-2.9365,-2.9371,-2.9256,-2.932,-2.933,-2.9369,-2.9416,-2.942,-2.937,-2.9365,-2.9456,-2.9466,-2.9477,-2.9614,-2.9502,-2.9508,-2.9512,-2.9808,-2.9813,-2.9817,0,0,0,0,0,0,-2.9191,-2.921,-2.9362,-2.929,-2.9309,-2.9327,-2.9372,-2.9373,-2.9399,-2.9425,-2.9427,-2.9394,-2.9453,-2.9467,-2.956,-2.9616,-2.9511,-2.9518,-2.9804,-2.981,-2.9815,-2.9888,0,0,0,0,0,0,-2.9186,-2.9209,-2.9253,-2.9292,-2.9313,-2.9443,-2.9375,-2.9377,-2.9411,-2.9405,-2.9448,-2.9452,-2.9451,-2.9549,-2.9567,-2.9624,-2.9523,-2.9799,-2.9806,-2.9813,-2.988,-2.9895,-2.9908,0,0,0,0,0,-2.9178,-2.927,-2.9255,-2.9274,-2.9368,-2.9446,-2.9458,-2.9456,-2.9416,-2.946,-2.9476,-2.9451,-2.9607,-2.9559,-2.9578,-2.9638,-2.9795,-2.9804,-2.9813,-2.9874,-2.9892,-2.9908,0,0,0,0,0,0,-2.9237,-2.9275,-2.9259,-2.9366,-2.9403,-2.9438,-2.9494,-2.9476,-2.9525,-2.9518,-2.9512,-2.9522,-2.9618,-2.9637,-2.9584,-2.9751,-2.9695,-2.9708,-2.9735,-2.9753,-2.9766,-2.976,-2.9529,0,0,0,0,0,-2.9262,-2.9323,-2.9352,-2.9444,-2.9463,-2.9476,-2.951,-2.9505,-2.9543,-2.9559,-2.9582,-2.962,-2.9678,-2.9716,-2.9771,-2.9882,-2.9891,-2.9933,-2.9947,-2.9958,-2.997,-3.003,-3.0049,-2.9846,-2.9846,-2.9846,0,0,-2.9315,-2.9343,-2.9382,-2.9456,-2.9485,-2.9547,-2.9489,-2.9558,-2.9605,-2.9569,-2.9658,-2.9676,-2.9718,-2.9821,-2.9867,-2.984,-3.0027,-2.9969,-2.9978,-2.9984,-3.0041,-3.006,-3.0077,-2.9852,-2.9851,-2.985,0,0,-2.9444,-2.9471,-2.955,-2.958,-2.9623,-2.9631,-2.965,-2.9688,-2.9699,-2.9787,-2.9762,-2.9817,-2.9916,-2.9948,-2.9976,-3.0116,-3.0094,-3.0134,-3.0207,-3.0265,-3.0281,-3.0295,-3.0345,-3.0363,-3.0145,-3.0145,-3.0145,0,-2.9504,-2.9598,-2.9593,-2.9664,-2.9697,-2.9668,-2.9747,-2.9776,-2.9836,-2.9859,-2.9828,-2.9952,-2.9978,-3.0087,-3.0121,-3.0145,-3.0167,-3.0129,-3.0279,-3.0293,-3.0306,-3.0354,-3.0372,-3.015,-3.0149,-3.0149,-3.0148,0,-2.967,-2.9735,-2.9794,-2.9852,-2.9891,-2.9967,-2.9973,-3.0013,-3.0004,-3.0015,-3.0105,-3.0136,-3.0196,-3.0221,-3.0213,-3.0329,-3.0311,-3.0279,-3.0223,-3.033,-3.0375,-3.0393,-3.0156,-3.0155,-3.0153,-3.0152,0,0,-2.9839,-2.9893,-2.9914,-2.994,-2.9986,-3.0036,-3.0109,-3.0168,-3.0203,-3.0244,-3.0305,-3.039,-3.0361,-3.0394,-3.0389,-3.044,-3.0548,-3.0403,-3.0403,-3.0429,-3.0677,-3.0701,-3.0722,-3.0534,-3.0537,-3.054,-3.0674,0,-2.9971,-3.01,-3.0097,-3.0216,-3.0276,-3.0248,-3.0312,-3.0347,-3.0358,-3.0411,-3.0423,-3.0483,-3.044,-3.046,-3.0509,-3.0525,-3.0598,-3.0515,-3.0591,-3.0593,-3.0581,-3.0745,-3.0771,-3.0896,-3.0691,-3.0694,-3.0696,0,-3.0143,-3.019,-3.0315,-3.0351,-3.0376,-3.0434,-3.0487,-3.0537,-3.0576,-3.058,-3.0617,-3.0603,-3.0677,-3.0618,-3.072,-3.0663,-3.0693,-3.0706,-3.071,-3.0718,-3.0652,-3.0758,-3.0936,-3.0955,-3.0724,-3.0721,-3.0719,0,-3.0254,-3.0348,-3.0435,-3.0458,-3.0503,-3.0543,-3.0564,-3.0599,-3.0634,-3.068,-3.0702,-3.0757,-3.0786,-3.0828,-3.083,-3.0787,-3.0932,-3.0873,-3.0938,-3.0938,-3.0971,-3.0969,-3.1157,-3.099,-3.099,-3.0989,-3.0989,0,-3.0402,-3.0479,-3.0486,-3.054,-3.0626,-3.0621,-3.0706,-3.0723,-3.0754,-3.081,-3.0789,-3.0842,-3.084,-3.0894,-3.0895,-3.0979,-3.0992,-3.0998,-3.0998,-3.1,-3.1,-3.1021,-3.1012,-3.0994,-3.0993,-3.0992,-3.0991,0,-3.0541,-3.0548,-3.0641,-3.0675,-3.0685,-3.0747,-3.0776,-3.0827,-3.0836,-3.0907,-3.0924,-3.0938,-3.1,-3.1005,-3.1077,-3.1078,-3.1179,-3.1169,-3.1167,-3.1165,-3.123,-3.1224,-3.1438,-3.1466,-3.1281,-3.1282,-3.1284,0,-3.0635,-3.0694,-3.0734,-3.077,-3.0793,-3.0851,-3.0887,-3.0884,-3.0922,-3.097,-3.1015,-3.1074,-3.1122,-3.1222,-3.1239,-3.1294,-3.1285,-3.1356,-3.1293,-3.1294,-3.1286,-3.1283,-3.1289,-3.1369,-3.1371,-3.1373,-3.1374,0,-3.0801,-3.0802,-3.0854,-3.0908,-3.0951,-3.0993,-3.1032,-3.1062,-3.1065,-3.1108,-3.1171,-3.1208,-3.1281,-3.1341,-3.1394,-3.1414,-3.1395,-3.1394,-3.1411,-3.1415,-3.1411,-3.1414,-3.1201,-3.1389,-3.1387,-3.1386,-3.1386,-3.1385,-3.0921,-3.0972,-3.1008,-3.1067,-3.1096,-3.1133,-3.1182,-3.1197,-3.125,-3.1309,-3.1304,-3.1374,-3.141,-3.1479,-3.1504,-3.1558,-3.1534,-3.156,-3.1566,-3.1573,-3.158,-3.1402,-3.1567,-3.1567,-3.1567,-3.1566,-3.1566,0,-3.1087,-3.1108,-3.1162,-3.1218,-3.1264,-3.1241,-3.1283,-3.1323,-3.1384,-3.142,-3.1467,-3.1539,-3.1596,-3.1617,-3.1673,-3.1712,-3.1704,-3.1727,-3.1724,-3.1729,-3.1598,-3.1577,-3.1732,-3.1732,-3.1732,-3.1732,-3.1732,-3.1732,-3.1178,-3.1264,-3.1268,-3.1367,-3.1388,-3.1457,-3.1482,-3.1516,-3.1544,-3.1626,-3.1673,-3.1686,-3.1715,-3.1773,-3.1824,-3.1829,-3.185,-3.1877,-3.1878,-3.1755,-3.1738,-3.1722,-3.1703,-3.1881,-3.1882,-3.2004,-3.2005,-3.2006]}]]